User: anonymous   Login
Location: Newark
(41.6500°N, 71.4833°W)
Time: 08:39:39
(UTC+00:00)
Language:

Courier 1B - Orbit

View from above orbital plane
View from above orbital plane
View from above satellite
View from above satellite

Ground track
Ground track

The orbit data is extracted from the following two-line orbital elements,

1    58U 60013A   20026.39020163 +.00000088 +00000-0 +54918-5 0  9995
2    58 028.3286 100.4244 0165049 324.8566 034.1188 13.46320611919324
Epoch (UTC): 26 January 2020 09:21:53
Eccentricity: 0.0165049
inclination: 28.3286°
perigee height: 962 km
apogee height: 1209 km
right ascension of ascending node: 100.4244°
argument of perigee: 324.8566°
revolutions per day: 13.46320611
mean anomaly at epoch: 34.1188°
orbit number at epoch: 91932

The dashed part of the orbit path shows where the satellite is in the earth's shadow,  

DLR